Regional Weather Roundup
Issued by NWS Cleveland, OH

Home | Current Version | Previous Version | Graphics & Text | Print | Product List | Glossary On
Versions: 1 2 3 4 5 6 7 8 9 10 11 12 13 14 15 16 17 18 19 20 21 22 23 24 25 26 27 28 29 30 31 32 33 34 35 36 37 38 39 40 41 42 43 44 45 46 47 48 49 50
000
ASUS41 KCLE 231910
RWRCLE
OHIO REGIONAL WEATHER ROUNDUP
NATIONAL WEATHER SERVICE WILMINGTON, OH
300 PM EDT WED APR 23 2014

NOTE: "FAIR" INDICATES FEW OR NO CLOUDS BELOW 12,000 FEET WITH NO
SIGNIFICANT WEATHER AND/OR OBSTRUCTIONS TO VISIBILITY.

OHZ001>008-015>018-024>027-034-035-043-044-232000-
   NORTHWEST OHIO

CITY           SKY/WX    TMP DP  RH WIND       PRES   REMARKS
DEFIANCE       SUNNY     56  29  35 VRB5      30.10R
FINDLAY        SUNNY     53  30  41 N9        30.08S
TOLEDO EXPRESS SUNNY     54  29  38 N8        30.08F
TOLEDO METCALF MOSUNNY   51  31  46 VRB7      30.09F
LIMA           MOSUNNY   53  34  48 VRB5      30.08F
$$

OHZ009>014-019>023-028>033-038-089-232000-
   NORTHEAST OHIO

CITY           SKY/WX    TMP DP  RH WIND       PRES   REMARKS
CLE-HOPKINS    MOSUNNY   47  29  49 N12       30.12R
CLE-LAKEFRONT  SUNNY     44  33  65 W10       30.08S
CUY CO. ARPT   MOSUNNY   45  32  61 W16       30.08S
LORAIN-ELYRIA  MOSUNNY   49  31  49 N9G18     30.10S
ASHTABULA      SUNNY     45  29  53 NW18G25   30.04S
AKRON-CANTON   CLOUDY    46  28  49 NW14      30.06S
WOOSTER        CLOUDY    45  32  60 N12       30.08S
MANSFIELD      PTSUNNY   48  33  56 N10G16    30.08S
YOUNGSTOWN     CLOUDY    44  30  57 W15       30.02F
$$

OHZ042-051>053-060>062-070>072-077>081-232000-
  SOUTHWEST OHIO

CITY           SKY/WX    TMP DP  RH WIND       PRES   REMARKS
CINC-COVINGTON MOSUNNY   58  30  34 N8        30.08S
CINC-LUNKEN    SUNNY     57  34  41 VRB5      30.08F
HAMILTON       SUNNY     58  34  40 VRB5      30.09F
DAYTON         MOSUNNY   55  34  45 NE3       30.09S
WRIGHT-PAT AFB MOSUNNY   55  33  44 N6        30.08F
DAYTON GENERAL SUNNY     55  33  43 NW8       30.07S
WILMINGTON     MOSUNNY   56  32  40 N10       30.07S
$$

OHZ036-037-039>041-045>050-054>059-063>069-073>076-082>088-232000-
  CENTRAL AND SOUTHEAST OHIO

CITY           SKY/WX    TMP DP  RH WIND       PRES   REMARKS
COLUMBUS       MOSUNNY   55  34  44 N9G21     30.07S
OSU AIRPORT    SUNNY     53  34  48 VRB5      30.07S
BOLTON FIELD   MOSUNNY   54  36  50 NW10G16   30.07F
RICKENBACK AFB MOSUNNY   56  30  37 NW6       30.06F
NEWARK         MOSUNNY   53  35  50 NW10      30.06S
MARION         MOSUNNY   51  31  46 N8        30.08F
LANCASTER      MOSUNNY   56  34  43 NW13      30.06F
ZANESVILLE     MOSUNNY   52  32  46 NW7       30.05F
NEW PHILLY     CLOUDY    45  32  60 N13       30.07S
$$



USA.gov is the U.S. government's official web portal to all federal, state and local government web resources and services.